User: anonymous   Login
Location: Unspecified
(0.0000°N, 0.0000°E)
Time: 18:11:51
(UTC+02:00)
Language:

Meteor 1-10 Rocket - Orbit

View from above orbital plane
View from above orbital plane
View from above satellite
View from above satellite

Ground track
Ground track

The orbit data is extracted from the following two-line orbital elements,

1 05732U 71120B   16237.03547013  .00000043  00000-0  18232-4 0  9997
2 05732  81.2499  50.1750 0052042 157.7534 202.5909 14.05925271297185
Epoch (UTC): 24 August 2016 00:51:04
Eccentricity: 0.0052042
inclination: 81.2499°
perigee height: 835 km
apogee height: 911 km
right ascension of ascending node: 50.1750°
argument of perigee: 157.7534°
revolutions per day: 14.05925271
mean anomaly at epoch: 202.5909°
orbit number at epoch: 29718

The dashed part of the orbit path shows where the satellite is in the earth's shadow,  

DLR